SB KEPS @ AMSAT $ORB07004.N 2Line Orbital Elements 07004.AMSAT
HR AMSAT ORBITAL ELEMENTS FOR AMATEUR SATELLITES IN NASA FORMAT FROM WA5QGD FORT WORTH,TX January 4, 2007 Send SUBSCRIBE KEPS/UNSUBSCRIBE KEPS to [email protected] only BID: ORB07004.N
DECODE 2-LINE ELSETS WITH THE FOLLOWING KEY: 1 AAAAAU 00 0 0 BBBBB.BBBBBBBB .CCCCCCCC 00000-0 00000-0 0 DDDZ 2 AAAAA EEE.EEEE FFF.FFFF GGGGGGG HHH.HHHH III.IIII JJ.JJJJJJJJKKKKKZ KEY: A-CATALOGNUM B-EPOCHTIME C-DECAY D-ELSETNUM E-INCLINATION F-RAAN G-ECCENTRICITY H-ARGPERIGEE I-MNANOM J-MNMOTION K-ORBITNUM Z-CHECKSUM
TO ALL RADIO AMATEURS BT
AO-07 1 07530U 74089B 07004.69786876 -.00000028 00000-0 10000-3 0 7714 2 07530 101.5414 047.3720 0012039 213.7326 146.2977 12.53572209470637 UO-11 1 14781U 84021B 07003.98577671 -.00000020 00000-0 46884-5 0 2661 2 14781 098.2005 023.4169 0009061 346.7089 013.3846 14.79506823225453 RS-10/11 1 18129U 87054A 07004.56864199 .00000040 00000-0 27686-4 0 1858 2 18129 082.9242 179.1972 0010264 255.2132 104.7885 13.72783059978786 RS-15 1 23439U 94085A 07001.15344821 -.00000039 00000-0 10597-3 0 04 2 23439 064.8198 277.0523 0164150 220.1187 138.7521 11.27551670494866 FO-29 1 24278U 96046B 07003.88045544 -.00000037 00000-0 -34364-5 0 4000 2 24278 098.5270 345.7795 0351023 149.0813 213.1519 13.52926283512681 SO-33 1 25509U 98061B 07004.55625061 .00000062 00000-0 20234-5 0 8337 2 25509 031.4301 070.8660 0354705 076.8869 287.1078 14.28143018427840 VO-52 1 28650U 05017B 07004.36757033 .00000476 00000-0 67428-4 0 5218 2 28650 097.8528 078.6118 0028312 068.0722 292.3560 14.81245463 90165 AO-16 1 20439U 90005D 07004.14089922 .00000040 00000-0 30255-4 0 9340 2 20439 098.1889 007.8020 0010500 320.5734 039.4690 14.31746267885070 LO-19 1 20442U 90005G 07003.99729773 .00000062 00000-0 38216-4 0 8653 2 20442 098.1809 017.1709 0011488 319.6394 040.3959 14.31987968885198 AO-27 1 22825U 93061C 07003.95631129 .00000056 00000-0 38161-4 0 5848 2 22825 098.3084 341.1940 0009111 032.5315 327.6429 14.29195843692035 IO-26 1 22826U 93061D 07003.82184137 .00000028 00000-0 27003-4 0 2789 2 22826 098.3021 342.2043 0009664 029.7105 330.4619 14.29440878692091 PO-28 1 22829U 93061G 07004.83757093 -.00000024 00000-0 66210-5 0 5617 2 22829 098.2911 344.3600 0009913 002.4252 357.6969 14.30138484692460 GO-32 1 25397U 98043D 07003.92047058 -.00000118 00000-0 -33726-4 0 1972 2 25397 098.4416 058.1199 0001410 029.3350 330.7920 14.23117220440792 MO-46 1 26548U 00057D 07004.39837545 .00000165 00000-0 38246-4 0 6886 2 26548 064.5585 329.3512 0033832 218.9534 140.9151 14.83080343339242 NO-44 1 26931U 01043C 07004.57671536 .00000137 00000-0 85796-4 0 4894 2 26931 067.0508 208.9356 0004983 277.8356 082.2197 14.29468339274713 SO-50 1 27607U 02058C 07003.96752035 .00000052 00000-0 30127-4 0 2092 2 27607 064.5583 223.5997 0037068 058.0032 302.4654 14.71215100216964 CO-55 1 27844U 03031E 07003.42160543 .00000055 00000-0 45992-4 0 9305 2 27844 098.7210 013.9683 0009552 202.0587 158.0206 14.20482898182086 CO-57 1 27848U 03031J 07003.98496189 .00000055 00000-0 45998-4 0 8943 2 27848 098.7182 013.7813 0009250 205.6539 154.4215 14.20306347182143 AO-51 1 28375U 04025K 07003.18860198 .00000036 00000-0 23861-4 0 7145 2 28375 098.1371 050.8091 0084305 323.0773 036.4631 14.40550327131957 CO-56 1 28941U 06005C 07004.14203837 .00030911 24576-5 34876-3 0 3149 2 28941 098.1562 047.6476 0251474 130.8832 231.4495 15.32966429 48242 HO-59 1 29484U 06041F 07004.81887150 .00040558 27234-5 33834-3 0 1404 2 29484 098.3115 031.2425 0254028 126.1143 236.4265 15.38590971 15857 RAFT 1 29661U 06055C 07003.84864620 .00051449 00000-0 22820-3 0 203 2 29661 051.6435 232.2918 0014386 073.0494 287.2094 15.83700201 2197 ANDE 1 29667U 06055J 07003.85652588 .00018909 00000-0 91219-4 0 133 2 29667 051.6322 232.3366 0018150 067.1471 293.1446 15.82424165 1937 NOAA-10 1 16969U 86073A 07004.05628198 .00000057 00000-0 41675-4 0 4865 2 16969 098.7535 021.0669 0011731 288.0830 071.9064 14.27314371 55815 NOAA-11 1 19531U 88089A 07004.34651123 -.00000082 00000-0 -19622-4 0 4595 2 19531 098.8197 095.5266 0012080 134.1600 226.0548 14.14831976942985 NOAA-12 1 21263U 91032A 07004.41109828 -.00000043 00000-0 63937-6 0 9557 2 21263 098.7438 001.9937 0012348 220.5104 139.5167 14.25519636812911 MET-3/5 1 21655U 91056A 07003.85009008 .00000051 00000-0 10000-3 0 2072 2 21655 082.5544 119.0547 0012362 260.3388 099.6336 13.17009548739777 MET-2/21 1 22782U 93055A 07004.57528811 -.00000002 00000-0 -15014-4 0 7134 2 22782 082.5464 171.7004 0022025 338.9140 021.1117 13.83614225673892 OKEAN-4 1 23317U 94066A 07004.77226142 .00000190 00000-0 20542-4 0 1509 2 23317 082.5402 088.9928 0023863 072.2661 288.1158 14.82451663659844 NOAA-14 1 23455U 94089A 07004.30539227 .00000285 00000-0 17480-3 0 4499 2 23455 099.0145 069.4568 0009403 199.2177 160.8671 14.13690318619482 SICH-1 1 23657U 95046A 07003.82281782 .00000310 00000-0 36369-4 0 9529 2 23657 082.5282 230.7700 0025523 065.0689 295.3161 14.81437413611698 NOAA-15 1 25338U 98030A 07004.38729453 .00000186 00000-0 98329-4 0 8150 2 25338 098.5239 005.7477 0011107 144.0584 216.1359 14.24620956449367 RESURS 1 25394U 98043A 07004.22555989 -.00000028 00000-0 59280-5 0 5393 2 25394 098.4679 065.0521 0001315 346.8866 013.2278 14.24123002441010 FENGYUN1 1 25730U 99025A 07004.39394934 -.00000139 00000-0 -52941-4 0 9201 2 25730 098.6429 354.5008 0013781 289.7568 070.2137 14.11819200394404 OKEAN-0 1 25860U 99039A 07004.56962931 .00000089 00000-0 20886-4 0 9448 2 25860 097.7295 014.4806 0001135 109.4366 250.6963 14.73420426401407 NOAA-16 1 26536U 00055A 07004.40787537 .00000291 00000-0 18300-3 0 2141 2 26536 099.0955 338.6793 0009898 274.5524 085.4528 14.12396336323988 NOAA-17 1 27453U 02032A 07004.29475741 .00000209 00000-0 11010-3 0 2336 2 27453 098.6023 077.3882 0011615 207.0832 152.9742 14.23842854235395 NOAA-18 1 28654U 05018A 07004.31223515 .00000302 00000-0 19185-3 0 7868 2 28654 098.8129 308.4967 0014638 014.9279 345.2331 14.11026687 83744 HUBBLE 1 20580U 90037B 07004.81865532 .00000406 00000-0 18717-4 0 7753 2 20580 028.4657 175.3632 0003827 163.5544 196.5169 15.00169143715408 UARS 1 21701U 91063B 07004.17554861 .00005519 00000-0 10193-3 0 9625 2 21701 056.9772 304.6767 0092497 233.4316 125.8200 15.46266756840362 PO-34 1 25520U 98064B 07004.42339653 .00000511 00000-0 15522-4 0 6462 2 25520 028.4588 124.7217 0005395 264.2225 095.7760 15.16893285452632 ISS 1 25544U 98067A 07004.81522880 .00023137 00000-0 14234-3 0 3824 2 25544 051.6336 228.0502 0023673 055.5770 042.5549 15.76725951464972 OO-38 1 26063U 00004C 07004.82661340 .00000011 00000-0 24096-4 0 8077 2 26063 100.2122 337.3781 0036577 259.6351 100.0707 14.35791903363603 NO-45 1 26932U 01043D 07004.79020262 -.00000059 00000-0 91175-5 0 4953 2 26932 067.0524 208.1252 0003322 259.1306 100.9421 14.29545675274787 UWE-1 1 28892U 05043C 07003.46615061 .00000113 00000-0 33513-4 0 6441 2 28892 098.1479 263.2185 0016327 267.1615 092.7696 14.59447735 63189 CO-58 1 28895U 05043F 07003.65602363 .00000185 00000-0 48695-4 0 6262 2 28895 098.1503 263.5557 0016859 267.0567 092.8687 14.59498188 63090 NCUBE2 1 28897U 05043H 07002.72067334 .00000158 00000-0 42972-4 0 1654 2 28897 098.1477 262.6063 0016422 272.0201 087.9104 14.59656440 55234 NMARS 1 29662U 06055D 07004.85863090 .00070998 00000-0 30966-3 0 240 2 29662 051.6423 227.0339 0014319 076.0062 284.2611 15.83924747 2245 FCAL 1 29664U 06055F 07004.80422194 .00029764 00000-0 14090-3 0 147 2 29664 051.6319 227.4151 0017655 070.0624 290.2278 15.82512265 2211 /EX
participants (1)
-
Ray Hoad